TimeCST,TemperatureF,Dew PointF,Humidity,Sea Level PressureIn,VisibilityMPH,Wind Direction,Wind SpeedMPH,Gust SpeedMPH,PrecipitationIn,Events,Conditions,WindDirDegrees,DateUTC
12:14 AM,21.2,17.6,86,29.84,10.0,North,11.5,17.3,N/A,,Overcast,10,2013-12-22 06:14:00
12:34 AM,19.4,17.6,93,29.83,10.0,NNE,12.7,16.1,N/A,,Overcast,20,2013-12-22 06:34:00
12:54 AM,19.4,17.6,93,29.82,10.0,North,9.2,17.3,N/A,,Overcast,10,2013-12-22 06:54:00
1:14 AM,19.4,17.6,93,29.83,10.0,North,8.1,-,N/A,,Overcast,360,2013-12-22 07:14:00
1:34 AM,19.4,17.6,93,29.84,10.0,North,11.5,-,N/A,,Overcast,10,2013-12-22 07:34:00
1:54 AM,19.4,17.6,93,29.85,7.0,North,10.4,-,N/A,,Overcast,360,2013-12-22 07:54:00
2:14 AM,19.4,17.6,93,29.86,10.0,North,10.4,-,N/A,,Overcast,360,2013-12-22 08:14:00
2:34 AM,19.4,17.6,93,29.88,10.0,North,9.2,-,N/A,,Overcast,360,2013-12-22 08:34:00
2:54 AM,19.4,15.8,86,29.88,10.0,North,8.1,-,N/A,,Overcast,360,2013-12-22 08:54:00
3:14 AM,19.4,15.8,86,29.87,10.0,North,9.2,-,N/A,,Overcast,350,2013-12-22 09:14:00
3:34 AM,17.6,15.8,93,29.87,10.0,North,10.4,16.1,N/A,,Overcast,350,2013-12-22 09:34:00
3:55 AM,17.6,15.8,93,29.86,10.0,North,11.5,21.9,N/A,,Overcast,350,2013-12-22 09:55:00
4:14 AM,17.6,15.8,93,29.86,10.0,North,12.7,20.7,N/A,,Overcast,350,2013-12-22 10:14:00
4:34 AM,17.6,15.8,93,29.86,10.0,North,15.0,21.9,N/A,,Overcast,350,2013-12-22 10:34:00
4:55 AM,17.6,14.0,86,29.86,10.0,NNW,12.7,23.0,N/A,,Overcast,340,2013-12-22 10:55:00
5:14 AM,17.6,14.0,86,29.87,10.0,North,12.7,18.4,N/A,,Overcast,350,2013-12-22 11:14:00
5:34 AM,17.6,12.2,79,29.87,10.0,NNW,13.8,23.0,N/A,,Overcast,340,2013-12-22 11:34:00
5:54 AM,15.8,12.2,86,29.88,10.0,NNW,13.8,19.6,N/A,,Overcast,330,2013-12-22 11:54:00
6:14 AM,15.8,12.2,86,29.89,10.0,NNW,12.7,-,N/A,,Overcast,330,2013-12-22 12:14:00
6:34 AM,15.8,14.0,93,29.90,10.0,NNW,11.5,16.1,N/A,,Overcast,330,2013-12-22 12:34:00
6:54 AM,15.8,14.0,93,29.91,10.0,NW,12.7,18.4,N/A,,Overcast,320,2013-12-22 12:54:00
7:14 AM,15.8,12.2,86,29.91,10.0,NW,13.8,-,N/A,,Overcast,310,2013-12-22 13:14:00
7:35 AM,15.8,12.2,86,29.91,10.0,NNW,10.4,16.1,N/A,,Overcast,330,2013-12-22 13:35:00
7:54 AM,15.8,12.2,86,29.91,10.0,NW,10.4,-,N/A,,Mostly Cloudy,320,2013-12-22 13:54:00
8:14 AM,15.8,12.2,86,29.92,10.0,NW,11.5,-,N/A,,Overcast,320,2013-12-22 14:14:00
8:35 AM,14.0,12.2,93,29.93,10.0,NNW,10.4,-,N/A,,Overcast,330,2013-12-22 14:35:00
8:54 AM,14.0,10.4,86,29.93,5.0,NNW,9.2,-,N/A,Snow,Light Snow,330,2013-12-22 14:54:00
9:14 AM,14.0,10.4,86,29.94,1.8,NW,11.5,-,N/A,Snow,Light Snow,320,2013-12-22 15:14:00
9:35 AM,14.0,10.4,86,29.94,3.0,NW,12.7,17.3,N/A,Snow,Light Snow,320,2013-12-22 15:35:00
9:54 AM,14.0,10.4,86,29.95,3.0,NW,15.0,-,N/A,Snow,Light Snow,310,2013-12-22 15:54:00
10:14 AM,14.0,10.4,86,29.96,5.0,NW,15.0,-,N/A,Snow,Light Snow,310,2013-12-22 16:14:00
10:35 AM,15.8,12.2,86,29.96,5.0,NW,13.8,-,N/A,Snow,Light Snow,320,2013-12-22 16:35:00
10:54 AM,15.8,12.2,86,29.96,10.0,NW,12.7,19.6,N/A,,Overcast,320,2013-12-22 16:54:00
11:14 AM,15.8,12.2,86,29.95,10.0,NW,16.1,-,N/A,,Overcast,320,2013-12-22 17:14:00
11:26 AM,15.8,12.2,86,29.95,10.0,NW,15.0,18.4,N/A,,Overcast,320,2013-12-22 17:26:00
3:07 PM,12.2,10.4,92,30.02,10.0,NW,16.1,20.7,N/A,,Unknown,310,2013-12-22 21:07:00
3:14 PM,12.2,10.4,92,30.02,10.0,WNW,15.0,20.7,N/A,,Unknown,300,2013-12-22 21:14:00
3:35 PM,12.2,8.6,85,30.03,7.0,WNW,15.0,-,N/A,,Unknown,300,2013-12-22 21:35:00
3:54 PM,12.2,8.6,85,30.04,10.0,NW,16.1,-,N/A,,Overcast,310,2013-12-22 21:54:00
4:14 PM,10.4,6.8,85,30.06,10.0,NW,15.0,-,N/A,,Overcast,310,2013-12-22 22:14:00
4:35 PM,10.4,6.8,85,30.06,10.0,NW,13.8,-,N/A,Snow,Light Snow,310,2013-12-22 22:35:00
4:54 PM,8.6,6.8,92,30.07,10.0,WNW,15.0,20.7,N/A,,Overcast,300,2013-12-22 22:54:00
5:14 PM,8.6,3.2,79,30.09,10.0,NW,15.0,-,N/A,,Overcast,310,2013-12-22 23:14:00
5:35 PM,6.8,3.2,85,30.09,10.0,NW,13.8,19.6,N/A,,Overcast,310,2013-12-22 23:35:00
5:54 PM,6.8,3.2,85,30.10,10.0,NW,12.7,16.1,N/A,,Overcast,320,2013-12-22 23:54:00
6:14 PM,6.8,1.4,79,30.11,7.0,NW,15.0,23.0,N/A,,Overcast,310,2013-12-23 00:14:00
6:35 PM,5.0,1.4,85,30.12,7.0,NW,13.8,21.9,N/A,,Mostly Cloudy,310,2013-12-23 00:35:00
6:54 PM,5.0,1.4,85,30.12,5.0,NW,11.5,20.7,N/A,Snow,Light Snow,310,2013-12-23 00:54:00
7:14 PM,3.2,1.4,92,30.13,7.0,WNW,13.8,19.6,N/A,,Overcast,300,2013-12-23 01:14:00
7:35 PM,3.2,-0.4,85,30.13,10.0,WNW,16.1,19.6,N/A,,Mostly Cloudy,300,2013-12-23 01:35:00
7:54 PM,3.2,-0.4,85,30.14,10.0,WNW,13.8,-,N/A,,Scattered Clouds,300,2013-12-23 01:54:00
8:14 PM,1.4,-2.2,85,30.14,10.0,WNW,12.7,-,N/A,,Clear,300,2013-12-23 02:14:00
8:35 PM,-0.4,-4.0,85,30.15,10.0,WNW,12.7,20.7,N/A,,Clear,300,2013-12-23 02:35:00
8:54 PM,-0.4,-4.0,85,30.15,10.0,NW,10.4,-,N/A,,Clear,310,2013-12-23 02:54:00
9:14 PM,-0.4,-4.0,85,30.16,10.0,WNW,13.8,-,N/A,,Clear,300,2013-12-23 03:14:00
9:35 PM,-0.4,-5.8,78,30.17,10.0,WNW,12.7,17.3,N/A,,Mostly Cloudy,290,2013-12-23 03:35:00
9:54 PM,-2.2,-5.8,85,30.17,10.0,WNW,15.0,21.9,N/A,,Scattered Clouds,300,2013-12-23 03:54:00
10:14 PM,-2.2,-5.8,85,30.18,10.0,WNW,15.0,20.7,N/A,,Clear,290,2013-12-23 04:14:00
10:34 PM,-2.2,-5.8,85,30.19,10.0,WNW,12.7,19.6,N/A,,Mostly Cloudy,290,2013-12-23 04:34:00
10:54 PM,-2.2,-5.8,85,30.19,10.0,NW,12.7,19.6,N/A,,Scattered Clouds,310,2013-12-23 04:54:00
11:14 PM,-2.2,-7.6,78,30.20,10.0,WNW,10.4,19.6,N/A,,Scattered Clouds,290,2013-12-23 05:14:00
11:34 PM,-2.2,-5.8,85,30.21,10.0,WNW,12.7,-,N/A,,Mostly Cloudy,290,2013-12-23 05:34:00
11:54 PM,-2.2,-7.6,78,30.21,10.0,WNW,18.4,-,N/A,,Overcast,290,2013-12-23 05:54:00